Total_Precipitation_Accumulation
0.02 0.06 0.11 0.17 0.16 0.11 0.06 0.05 0.06 0.07 0.12 0.20 0.34 0.44 0.46 0.45 0.45 0.39 0.29 0.27 0.24 0.24 0.25 0.26 0.30 0.34 0.42 0.54 0.56 0.58 0.71 0.81 0.87 0.87 0.92 0.96 0.98 0.98 1.06 1.08 1.10 1.24 1.29 1.26
0.03 0.05 0.08 0.11 0.13 0.09 0.06 0.05 0.05 0.06 0.13 0.25 0.41 0.46 0.48 0.43 0.40 0.37 0.35 0.29 0.27 0.28 0.31 0.29 0.31 0.39 0.46 0.55 0.62 0.74 1.01 1.14 1.16 1.19 1.22 1.22 1.20 1.15 1.21 1.29 1.42 1.48 1.44 1.40
0.05 0.07 0.08 0.13 0.11 0.10 0.08 0.07 0.07 0.10 0.19 0.27 0.39 0.53 0.60 0.50 0.38 0.37 0.35 0.35 0.35 0.38 0.43 0.41 0.41 0.45 0.48 0.52 0.62 0.79 0.98 1.14 1.23 1.26 1.29 1.35 1.36 1.36 1.38 1.43 1.48 1.52 1.58 1.58
0.10 0.10 0.17 0.15 0.12 0.13 0.12 0.12 0.15 0.23 0.31 0.35 0.38 0.44 0.48 0.41 0.39 0.41 0.40 0.44 0.48 0.49 0.53 0.53 0.54 0.53 0.59 0.71 0.82 0.92 1.04 1.16 1.30 1.35 1.41 1.44 1.38 1.32 1.31 1.34 1.34 1.32 1.29 1.28
0.21 0.19 0.18 0.16 0.19 0.21 0.20 0.24 0.27 0.37 0.48 0.52 0.50 0.50 0.58 0.50 0.48 0.47 0.49 0.51 0.55 0.60 0.62 0.67 0.73 0.73 0.74 0.84 0.98 1.10 1.18 1.31 1.42 1.49 1.58 1.53 1.41 1.35 1.26 1.24 1.16 1.10 1.08 1.10
0.32 0.34 0.33 0.25 0.29 0.28 0.30 0.49 0.46 0.51 0.62 0.70 0.70 0.85 0.90 0.68 0.62 0.56 0.51 0.53 0.58 0.68 0.73 0.77 0.87 0.91 0.91 0.95 1.01 1.10 1.16 1.25 1.36 1.44 1.57 1.60 1.50 1.45 1.39 1.37 1.26 1.20 1.15 1.14
0.41 0.43 0.38 0.35 0.34 0.34 0.60 0.80 0.73 0.69 0.68 0.78 0.88 0.82 0.77 0.63 0.62 0.58 0.51 0.52 0.55 0.62 0.73 0.78 0.85 0.93 1.01 1.01 0.98 0.99 0.98 0.98 1.11 1.25 1.39 1.45 1.46 1.44 1.48 1.47 1.39 1.25 1.12 1.05
0.53 0.66 0.73 0.53 0.43 0.60 0.82 0.81 0.87 0.78 0.74 0.79 0.84 0.86 0.80 0.71 0.64 0.58 0.48 0.50 0.55 0.59 0.66 0.74 0.85 0.99 1.09 1.07 1.03 1.02 1.02 1.08 1.14 1.19 1.19 1.17 1.23 1.25 1.31 1.38 1.36 1.26 1.10 0.97
0.77 0.88 0.82 0.60 0.60 0.65 0.67 0.81 0.82 0.78 0.77 0.76 0.74 0.75 0.70 0.59 0.55 0.57 0.52 0.50 0.47 0.52 0.60 0.71 0.87 1.01 1.12 1.10 1.15 1.15 1.12 1.17 1.20 1.21 1.21 1.21 1.20 1.19 1.19 1.16 1.09 1.00 0.91 0.89
0.94 1.04 0.89 0.73 0.66 0.66 0.70 0.74 0.75 0.73 0.78 0.78 0.71 0.66 0.63 0.58 0.51 0.52 0.50 0.46 0.45 0.44 0.50 0.60 0.67 0.76 0.89 0.94 1.03 1.13 1.12 1.05 0.97 0.95 0.96 1.01 1.06 1.07 1.09 1.05 1.00 0.94 0.88 0.89
1.10 1.26 1.16 0.99 0.80 0.73 0.80 0.81 0.84 0.84 0.79 0.75 0.73 0.75 0.78 0.72 0.57 0.47 0.46 0.48 0.47 0.47 0.51 0.54 0.58 0.62 0.70 0.80 0.92 1.09 1.14 1.07 1.01 0.98 0.95 0.95 0.98 1.03 1.01 1.00 0.96 0.90 0.87 0.93
1.25 1.23 1.23 1.17 0.92 0.85 0.91 0.97 0.96 0.88 0.83 0.80 0.80 0.79 0.72 0.65 0.56 0.46 0.46 0.51 0.56 0.58 0.58 0.55 0.56 0.62 0.68 0.78 0.92 1.06 1.08 0.98 0.97 0.98 0.98 0.96 0.93 0.98 1.02 0.91 0.92 0.88 0.89 0.92
0.92 1.05 1.10 1.03 0.95 0.92 0.98 1.04 1.06 0.97 0.84 0.77 0.73 0.69 0.62 0.60 0.58 0.51 0.48 0.50 0.58 0.62 0.58 0.54 0.53 0.55 0.61 0.73 0.90 1.03 1.04 1.00 0.96 0.97 1.01 1.00 0.97 0.96 1.01 0.95 0.81 0.74 0.73 0.70
0.94 1.01 1.11 1.04 0.99 0.97 1.04 1.13 1.13 1.02 0.90 0.80 0.71 0.66 0.63 0.60 0.60 0.61 0.60 0.65 0.64 0.56 0.48 0.45 0.45 0.47 0.51 0.61 0.79 0.95 0.99 1.03 1.02 0.98 0.96 0.94 0.92 0.91 0.90 0.93 0.87 0.74 0.63 0.55
0.95 0.90 0.98 0.97 0.98 1.03 1.13 1.07 1.03 1.02 0.89 0.77 0.67 0.59 0.54 0.53 0.57 0.62 0.68 0.74 0.64 0.52 0.46 0.41 0.40 0.39 0.43 0.51 0.60 0.71 0.75 0.76 0.76 0.77 0.79 0.79 0.76 0.72 0.69 0.69 0.72 0.75 0.66 0.50
0.81 0.82 0.81 0.91 0.95 0.96 1.01 1.01 0.94 0.90 0.82 0.75 0.67 0.61 0.57 0.54 0.55 0.58 0.64 0.64 0.60 0.54 0.48 0.44 0.43 0.41 0.39 0.43 0.47 0.49 0.49 0.56 0.51 0.46 0.48 0.53 0.54 0.55 0.54 0.57 0.64 0.73 0.68 0.52
0.80 0.84 0.80 0.84 0.88 0.86 0.80 0.81 0.81 0.81 0.78 0.75 0.69 0.59 0.51 0.50 0.56 0.62 0.61 0.54 0.47 0.42 0.40 0.38 0.38 0.38 0.37 0.40 0.39 0.38 0.34 0.33 0.33 0.26 0.30 0.40 0.47 0.47 0.47 0.54 0.61 0.70 0.65 0.48
0.74 0.74 0.70 0.67 0.66 0.70 0.68 0.67 0.70 0.69 0.72 0.68 0.60 0.52 0.46 0.46 0.54 0.61 0.55 0.46 0.41 0.37 0.32 0.29 0.27 0.27 0.30 0.30 0.29 0.28 0.27 0.26 0.24 0.22 0.29 0.35 0.35 0.41 0.51 0.60 0.66 0.70 0.65 0.52
0.65 0.58 0.55 0.52 0.48 0.50 0.51 0.51 0.59 0.59 0.55 0.51 0.48 0.46 0.44 0.41 0.42 0.46 0.40 0.39 0.37 0.33 0.26 0.20 0.22 0.21 0.23 0.20 0.21 0.24 0.27 0.26 0.24 0.26 0.32 0.33 0.35 0.43 0.56 0.63 0.65 0.67 0.65 0.64
0.53 0.46 0.44 0.42 0.39 0.38 0.39 0.40 0.40 0.39 0.37 0.34 0.35 0.36 0.36 0.36 0.34 0.38 0.34 0.34 0.33 0.27 0.21 0.17 0.16 0.18 0.20 0.17 0.17 0.19 0.22 0.25 0.24 0.24 0.25 0.30 0.36 0.40 0.46 0.51 0.54 0.56 0.59 0.61
0.46 0.41 0.38 0.39 0.38 0.35 0.31 0.28 0.27 0.29 0.30 0.28 0.29 0.31 0.32 0.31 0.28 0.32 0.40 0.40 0.33 0.24 0.20 0.21 0.17 0.16 0.15 0.17 0.18 0.19 0.23 0.26 0.25 0.26 0.25 0.27 0.32 0.38 0.44 0.48 0.52 0.52 0.53 0.56
0.47 0.41 0.38 0.37 0.38 0.37 0.31 0.26 0.24 0.24 0.25 0.28 0.28 0.27 0.27 0.28 0.27 0.30 0.39 0.42 0.36 0.33 0.23 0.19 0.16 0.15 0.15 0.14 0.15 0.21 0.23 0.27 0.31 0.34 0.33 0.31 0.34 0.41 0.47 0.48 0.50 0.50 0.53 0.56
0.46 0.44 0.42 0.41 0.40 0.38 0.32 0.29 0.25 0.23 0.24 0.27 0.29 0.31 0.31 0.30 0.31 0.33 0.35 0.32 0.33 0.38 0.30 0.24 0.21 0.19 0.16 0.14 0.18 0.25 0.25 0.26 0.29 0.33 0.35 0.34 0.34 0.37 0.41 0.42 0.48 0.50 0.52 0.56
0.50 0.47 0.44 0.41 0.39 0.42 0.40 0.35 0.30 0.27 0.27 0.28 0.29 0.31 0.35 0.36 0.36 0.33 0.33 0.33 0.33 0.32 0.28 0.30 0.27 0.23 0.21 0.20 0.25 0.28 0.28 0.29 0.29 0.28 0.28 0.28 0.29 0.33 0.42 0.45 0.45 0.44 0.46 0.49
0.57 0.52 0.43 0.40 0.40 0.42 0.42 0.40 0.37 0.33 0.31 0.32 0.30 0.28 0.30 0.38 0.47 0.46 0.41 0.35 0.34 0.30 0.29 0.30 0.27 0.28 0.27 0.28 0.29 0.29 0.29 0.33 0.36 0.34 0.32 0.33 0.37 0.41 0.44 0.41 0.37 0.35 0.36 0.42
0.65 0.59 0.50 0.43 0.39 0.37 0.39 0.41 0.43 0.42 0.37 0.35 0.36 0.34 0.33 0.36 0.42 0.48 0.48 0.43 0.38 0.33 0.32 0.31 0.27 0.26 0.25 0.28 0.32 0.34 0.34 0.36 0.38 0.40 0.40 0.41 0.47 0.49 0.39 0.30 0.28 0.29 0.32 0.35
0.62 0.57 0.54 0.48 0.42 0.37 0.36 0.38 0.43 0.47 0.47 0.46 0.44 0.44 0.47 0.50 0.53 0.51 0.49 0.44 0.38 0.35 0.35 0.31 0.27 0.24 0.22 0.23 0.24 0.24 0.26 0.31 0.37 0.44 0.47 0.46 0.44 0.42 0.33 0.27 0.25 0.26 0.31 0.34